Location: Favalello
(42.2939°N, 9.2706°E)
Time: 14:13:56
(UTC+00:00)

ERBS - Pass Details

Date: 06 December 2019
Orbit: 410 x 430 km, 57.0° (Epoch: 25 January)

Event Time Altitude Azimuth Distance (km) Brightness Sun altitude
Rises 16:45:28 0° 316° (NW) 2,373 6.4 -10.0°
Reaches altitude 10° 16:47:34 10° 320° (NW) 1,509 5.3 -10.3°
Maximum altitude 16:50:55 63° 42° (NE) 478 2.2 -10.9°
Drops below altitude 10° 16:54:16 10° 124° (SE) 1,512 4.7 -11.5°
Enters shadow 16:55:20 - 127° (SE) 1,945 5.3 -11.7°
